Погода в Нижней Ермоловке

Россия / Карачаево-Черкесская Республика     43°44′22″N   41°30′26″E
темп.,
°C
ветер,
м/с
пор.,
м/с
влажн.,
%
обл.,
%
осадки,
мм/ч
давл.,
гПа
погр.,
м
5 марта, пт
пт500:00−6ююз33560 0.0 102350
03:00−5ююз44540 0.0 102261
06:00−5ююз44550 0.0 102161
09:00+2ююз12550 0.0 1019118
12:00+6с11510 0.0 1018419
15:00+6ссв11490 0.0 1018487
18:000ююз22680 0.0 102031
21:00−2ююз44490 0.0 102172
6 марта, сб
сб600:00−1ююз444711 0.0 102171
03:00−1ююз44445 0.0 102194
06:000ююз444422 0.0 102087
09:00+4ююз483946 0.0 1018278
12:00+8ююз3835100 0.0 10161768
15:00+7ююз2945100 0.0 10152146
18:00+1ююз3458100 0.0 101576
21:000ююз4661100 0.0 1017119
7 марта, вс
вс700:00−1юз2269100 0.0 101994
03:00−5ссз2495100 1.8 1021442
06:00−7с2294100 2.9 1023312
09:00−7ссв3391100 4.2 1025376
12:00−5св3275100 0.4 1025606
15:00−4ссв217098 0.4 1024578
18:00−7ссв238433 0.0 1025145
21:00−9ююз118044 0.0 102647
8 марта, пн
пн800:00−10юз11700 0.0 102628
03:00−10юз11700 0.0 102525
06:00−10ююз11680 0.0 102328
09:00−5ссв11630 0.0 1021259
12:00−2ссв22610 0.0 1019489
15:00−2ссв22670 0.0 1018510
18:00−5ссв228429 0.0 101984
21:00−7ю117652 0.0 102043
9 марта, вт
вт900:00−7ююз226577 0.0 102040
03:00−7ююз226352 0.0 101939
06:00−7ююз226828 0.0 101946
09:00−2зсз125114 0.0 1017292
12:00+2сз14420 0.0 10161193
15:00+2с14440 0.0 10161422
18:00−3ю11712 0.0 101747
21:00−4ююз345442 0.0 1019120